User: anonymous   Login
Location: Fairmont
(43.6520°N, 94.4610°W)
Time: 02:08:26
(UTC-06:00)
Language:

Cosmos-2242 - Orbit

View from above orbital plane
View from above orbital plane
View from above satellite
View from above satellite

Ground track
Ground track

The orbit data is extracted from the following two-line orbital elements,

1 22626U 93024A   16045.23766916  .00000943  00000-0  10149-3 0  9996
2 22626  82.5243 142.6711 0017832 305.9561  54.0002 14.87348769233462
Epoch (UTC): 14 February 2016 05:42:14
Eccentricity: 0.0017832
inclination: 82.5243°
perigee height: 594 km
apogee height: 618 km
right ascension of ascending node: 142.6711°
argument of perigee: 305.9561°
revolutions per day: 14.87348769
mean anomaly at epoch: 54.0002°
orbit number at epoch: 23346

The dashed part of the orbit path shows where the satellite is in the earth's shadow,  

DLR